VK2COW-9 Weather Reports


time (UTC)temp
F
wind
direction
speed
knots
gust
knots
rain 1hr
in
rain 24hr
in
rain mn
in
humidity
%
barometer
mb
20260503190306 57 0.0 0.0 0.00 0.00 0.00 61
20260503190008 57 0.0 0.0 0.00 0.00 0.00 61
20260503185115 57 0.0 0.0 0.00 0.00 0.00 62
20260503184816 57 0.0 0.0 0.00 0.00 0.00 62
20260503183922 57 0.0 0.0 0.00 0.00 0.00 62
20260503183623 57 0.0 0.0 0.00 0.00 0.00 62
20260503182729 57 0.0 0.0 0.00 0.00 0.00 62
20260503182431 57 0.0 0.0 0.00 0.00 0.00 62
20260503181536 57 0.0 0.0 0.00 0.00 0.00 62
20260503181238 57 0.0 0.0 0.00 0.00 0.00 62
20260503180344 57 0.0 0.0 0.00 0.00 0.00 62
20260503180045 57 0.0 0.0 0.00 0.00 0.00 62
20260503175151 57 0.0 0.0 0.00 0.00 0.00 62
20260503174852 57 0.0 0.0 0.00 0.00 0.00 62
20260503173957 58 0.0 0.0 0.00 0.00 0.00 62
20260503173659 57 0.0 0.0 0.00 0.00 0.00 62
20260503172803 58 0.0 0.0 0.00 0.00 0.00 62
20260503172505 58 0.0 0.0 0.00 0.00 0.00 62
20260503171609 58 0.0 0.0 0.00 0.00 0.00 62
20260503171310 58 0.0 0.0 0.00 0.00 0.00 62
20260503170415 58 0.0 0.0 0.00 0.00 0.00 62
20260503170116 58 0.0 0.0 0.00 0.00 0.00 62
20260503160144 58 0.0 0.0 0.00 0.00 0.00 62
20260503150510 59 0.0 0.0 0.00 0.00 0.00 61
20260503150211 59 0.0 0.0 0.00 0.00 0.00 61
20260503140240 59 0.0 0.0 0.00 0.00 0.00 61
20260503130604 59 0.0 0.0 0.00 0.00 0.00 62
20260503130305 59 0.0 0.0 0.00 0.00 0.00 62
20260503110632 61 0.0 0.0 0.00 0.00 0.00 62
20260503110332 61 0.0 0.0 0.00 0.00 0.00 62
20260503050512 74 0.0 0.0 0.00 0.00 0.00 53
20260503050211 74 0.0 0.0 0.00 0.00 0.00 53
20260503045308 74 0.0 0.0 0.00 0.00 0.00 52
20260503045006 75 0.0 0.0 0.00 0.00 0.00 52
20260503044103 75 0.0 0.0 0.00 0.00 0.00 51
20260503043802 75 0.0 0.0 0.00 0.00 0.00 51
20260503042859 77 0.0 0.0 0.00 0.00 0.00 49
20260503042558 77 0.0 0.0 0.00 0.00 0.00 49
20260503041656 78 0.0 0.0 0.00 0.00 0.00 47
20260503041355 79 0.0 0.0 0.00 0.00 0.00 47
20260503040454 79 0.0 0.0 0.00 0.00 0.00 46
20260503040153 78 0.0 0.0 0.00 0.00 0.00 47
20260503035252 76 0.0 0.0 0.00 0.00 0.00 49
20260503034951 75 0.0 0.0 0.00 0.00 0.00 49
20260503034050 75 0.0 0.0 0.00 0.00 0.00 50
20260503033749 75 0.0 0.0 0.00 0.00 0.00 50
20260503032848 75 0.0 0.0 0.00 0.00 0.00 50
20260503032547 75 0.0 0.0 0.00 0.00 0.00 50
20260503031646 75 0.0 0.0 0.00 0.00 0.00 50
20260503031345 75 0.0 0.0 0.00 0.00 0.00 49
20260503030445 76 0.0 0.0 0.00 0.00 0.00 48
20260503030145 77 0.0 0.0 0.00 0.00 0.00 47
20260503025245 78 0.0 0.0 0.00 0.00 0.00 46
20260503024945 78 0.0 0.0 0.00 0.00 0.00 45
20260503024046 79 0.0 0.0 0.00 0.00 0.00 44
20260503023745 80 0.0 0.0 0.00 0.00 0.00 43
20260503022847 80 0.0 0.0 0.00 0.00 0.00 43
20260503022547 79 0.0 0.0 0.00 0.00 0.00 43
20260503021650 80 0.0 0.0 0.00 0.00 0.00 42
20260503021351 80 0.0 0.0 0.00 0.00 0.00 41
20260503020454 82 0.0 0.0 0.00 0.00 0.00 39
20260503020155 82 0.0 0.0 0.00 0.00 0.00 39
20260503015001 79 0.0 0.0 0.00 0.00 0.00 40
20260503014108 77 0.0 0.0 0.00 0.00 0.00 41
20260503013810 77 0.0 0.0 0.00 0.00 0.00 41
20260503012918 75 0.0 0.0 0.00 0.00 0.00 42
20260503012620 74 0.0 0.0 0.00 0.00 0.00 43
20260503011729 73 0.0 0.0 0.00 0.00 0.00 43
20260503011431 73 0.0 0.0 0.00 0.00 0.00 43
20260503010540 73 0.0 0.0 0.00 0.00 0.00 43
20260503010243 73 0.0 0.0 0.00 0.00 0.00 43
20260503005354 71 0.0 0.0 0.00 0.00 0.00 43
20260503005058 71 0.0 0.0 0.00 0.00 0.00 43
20260503004210 69 0.0 0.0 0.00 0.00 0.00 45
20260503003913 68 0.0 0.0 0.00 0.00 0.00 45
20260503003026 67 0.0 0.0 0.00 0.00 0.00 46
20260503002730 66 0.0 0.0 0.00 0.00 0.00 47
20260503001843 65 0.0 0.0 0.00 0.00 0.00 48
20260503001547 64 0.0 0.0 0.00 0.00 0.00 48
20260503000407 63 0.0 0.0 0.00 0.00 0.00 49
20260502235519 62 0.0 0.0 0.00 0.00 0.00 50
20260502235223 61 0.0 0.0 0.00 0.00 0.00 50
20260502234337 60 0.0 0.0 0.00 0.00 0.00 51
20260502234042 60 0.0 0.0 0.00 0.00 0.00 51
20260502233156 60 0.0 0.0 0.00 0.00 0.00 52
20260502232901 59 0.0 0.0 0.00 0.00 0.00 52
20260502232015 59 0.0 0.0 0.00 0.00 0.00 53
20260502231720 58 0.0 0.0 0.00 0.00 0.00 53
20260502230834 57 0.0 0.0 0.00 0.00 0.00 54
20260502230538 57 0.0 0.0 0.00 0.00 0.00 54
20260502225653 56 0.0 0.0 0.00 0.00 0.00 55
20260502225357 56 0.0 0.0 0.00 0.00 0.00 55
20260502224511 55 0.0 0.0 0.00 0.00 0.00 56
20260502224216 55 0.0 0.0 0.00 0.00 0.00 57
20260502223329 55 0.0 0.0 0.00 0.00 0.00 58
20260502223033 54 0.0 0.0 0.00 0.00 0.00 58
20260502222146 54 0.0 0.0 0.00 0.00 0.00 59
20260502221851 53 0.0 0.0 0.00 0.00 0.00 59
20260502221003 53 0.0 0.0 0.00 0.00 0.00 60
20260502220707 53 0.0 0.0 0.00 0.00 0.00 60
20260502215820 52 0.0 0.0 0.00 0.00 0.00 61
20260502215523 52 0.0 0.0 0.00 0.00 0.00 61
20260502214636 52 0.0 0.0 0.00 0.00 0.00 62
20260502214339 52 0.0 0.0 0.00 0.00 0.00 62
20260502213451 51 0.0 0.0 0.00 0.00 0.00 63
20260502213154 51 0.0 0.0 0.00 0.00 0.00 63
20260502212305 51 0.0 0.0 0.00 0.00 0.00 63
20260502212008 51 0.0 0.0 0.00 0.00 0.00 64
20260502211119 51 0.0 0.0 0.00 0.00 0.00 64
20260502210822 51 0.0 0.0 0.00 0.00 0.00 64
20260502205932 51 0.0 0.0 0.00 0.00 0.00 64
20260502205635 51 0.0 0.0 0.00 0.00 0.00 64
20260502204745 51 0.0 0.0 0.00 0.00 0.00 64
20260502204449 51 0.0 0.0 0.00 0.00 0.00 64
20260502203559 51 0.0 0.0 0.00 0.00 0.00 64
20260502203302 51 0.0 0.0 0.00 0.00 0.00 64
20260502202412 51 0.0 0.0 0.00 0.00 0.00 64
20260502202115 51 0.0 0.0 0.00 0.00 0.00 64
20260502201225 52 0.0 0.0 0.00 0.00 0.00 64
20260502200927 52 0.0 0.0 0.00 0.00 0.00 64
20260502200036 52 0.0 0.0 0.00 0.00 0.00 64
20260502195739 52 0.0 0.0 0.00 0.00 0.00 64
20260502194848 52 0.0 0.0 0.00 0.00 0.00 64
20260502193700 52 0.0 0.0 0.00 0.00 0.00 64
20260502193403 52 0.0 0.0 0.00 0.00 0.00 64
20260502192512 52 0.0 0.0 0.00 0.00 0.00 64
20260502192215 52 0.0 0.0 0.00 0.00 0.00 64
20260502191323 52 0.0 0.0 0.00 0.00 0.00 65
20260502191026 52 0.0 0.0 0.00 0.00 0.00 65